Weather in Druzhba

Russia / Karachay-Cherkess Republic     44°11′36″N   42°00′53″E
temp.,
°C
wind,
m/s
gust,
m/s
humid.,
%
clouds,
%
prec.,
mm/h
press.,
hPa
HPBL,
m
14 april, wed
wed1400:00+7wsw2396100 3.8 1019144
03:00+7wsw369090 3.9 1018234
06:00+6w4889100 0.0 1019408
09:00+8nw4578100 0.1 1019794
12:00+11nw4566100 0.1 10171090
15:00+10nnw447297 0.1 1018758
18:00+10nw337793 0.0 1018395
21:00+8s008656 0.0 101913
15 april, thu
thu1500:00+6ssw228910 0.0 101814
03:00+5ssw22846 0.0 101915
06:00+5s22645 0.0 101923
09:00+13ese12483 0.0 1017442
12:00+16nne3237100 0.0 10161479
15:00+16nne4337100 0.0 10161581
18:00+13nne355870 0.0 1016129
21:00+10ese116898 0.0 101810
16 april, fri
fri1600:00+8se227330 0.0 101710
03:00+8s2274100 0.0 101717
06:00+8s2268100 0.0 101818
09:00+13n115374 0.0 1017431
12:00+17nne334762 0.0 10161486
15:00+17ese2452100 0.2 10151323
18:00+11nw7987100 1.0 1018420
21:00+9wnw2496100 2.3 1021483
17 april, sat
sat1700:00+9nw129495 0.4 1020228
03:00+8nw2494100 0.4 1021438
06:00+7w1295100 1.0 1023249
09:00+8e1189100 2.1 1023280
12:00+10ne3481100 0.1 1022753
15:00+10ene4580100 0.1 1022666
18:00+9e4685100 0.2 1022500
21:00+8ese2494100 0.8 1022211
18 april, sun
sun1800:00+8ese1295100 0.0 102043
03:00+7ese2295100 0.1 102043
06:00+7e1396100 0.2 101996
09:00+11ene2179100 0.2 1018439
12:00+15ne3366100 0.0 1017890
15:00+16ene326465 0.4 1016963
18:00+13n1384100 1.3 101793
21:00+11nw119235 1.6 101812